sat.trackr.live / text

‹ back to catalog

STARLINK-6338

NORAD 57364 · 2023-099AN

PAYLOAD ACTIVE UNKNOWN

§ Identity

Operator
Country
US
Launch date
2023-07-16
Launch site
AFETR
Launch vehicle
Mass (kg)
RCS (m²)

Purposes: comms

External: N2YO · Heavens-Above · Gunter

§ Orbital elements

Epoch: 2026-09-19T05:52:56.144064Z

Period
94.27 min
Inclination
43.0013°
Eccentricity
0.0001335
Mean motion
15.27590963 rev/d
Perigee alt
482.1 km
Apogee alt
483.9 km
Semi-major
6,861.2 km
B*
1.1089e-4
RAAN
228.3665°
Arg perigee
266.4159°
Mean anomaly
93.6540°
Rev number
17,579

§ Raw data

STARLINK-63381 57364U 23099AN  26262.24509426  .00002792  00000+0  11089-3 0  99992 57364  43.0013 228.3665 0001335 266.4159  93.6540 15.27590963175798

JSON: /api/v1/satellites/57364 · /tle

For live sub-satellite position, see the globe view (requires WebGL).

§ Visibility from observer

Set your observer location to see the next 7 days of passes ≥ 10°. The values pass through the URL so the page stays shareable.

No JS? Fill the form by hand. The geolocation button needs JavaScript.